Weather in Voskresenovka

Russia / Jewish Autonomous Oblast     48°02′35″N   132°52′52″E
temp.,
°C
wind,
m/s
gust,
m/s
humid.,
%
clouds,
%
prec.,
mm/h
press.,
hPa
HPBL,
m
19 may, wed
wed1901:00+15wsw016516 0.0 100011
04:00+12ne2384100 0.0 100083
07:00+14e118188 0.1 1001114
10:00+18ne1162100 0.2 1001565
13:00+20nw2355100 0.0 10021088
16:00+24wnw3443100 0.0 10022160
19:00+23wnw2344100 0.0 1003800
22:00+17ne11580 0.0 100411
20 may, thu
thu2001:00+15sse11690 0.0 100410
04:00+14sse22786 0.0 100323
07:00+16sse297776 0.0 1002270
10:00+23sw6114967 0.1 10011021
13:00+27w693975 0.0 10011547
16:00+29wsw593349 0.0 10022622
19:00+22nw5864100 0.9 1003550
22:00+16n118558 3.9 100519
21 may, fri
fri2101:00+15s11745 0.1 100511
04:00+13nne22820 0.1 100635
07:00+14ne23660 0.0 100793
10:00+20ene23420 0.0 1007539
13:00+25ene21354 0.0 1005912
16:00+27nne2133100 0.0 10041396
19:00+24ne344699 0.0 1003397
22:00+19ene115815 0.0 100411
22 may, sat
sat2201:00+17nne2262100 0.0 100412
04:00+15ne227012 0.1 100338
07:00+15ne3116164 0.0 1005386
10:00+19ene57475 0.0 1006693
13:00+23ene56405 0.0 1005980
16:00+25ene33370 0.0 10041121
19:00+23e35464 0.0 1004693
22:00+17e23670 0.0 100555
23 may, sun
sun2301:00+15ene22757 0.0 100641
04:00+13se228198 0.0 100519
07:00+16se2684100 0.1 1004218
10:00+23ssw61149100 0.3 1004962
13:00+23ssw71049100 0.1 10031268
16:00+21sw4865100 0.9 1003857
19:00+20ssw51369100 0.7 1001996
22:00+17ssw51482100 1.1 1002724